Home   Weather   Ensenada   Past weeks
Flag for Mexico

Past Weather in Ensenada, Baja California, Mexico — Yesterday and Last 2 Weeks

Now
54 °F

Passing clouds.


Feels Like: 53 °F
Forecast: 63 / 51 °F
Wind: 5 mph from Northeast

Location: Tijuana International Airport

Current Time: Mar 20, 2019 at 4:51:33 am

Latest Report: Mar 20, 2019 at 3:40 am


Visibility: 6 mi

Pressure: 30.03 "Hg

Humidity: 88%

Dew Point: 50 °F

Location of EnsenadaLocation

Past Weather in Ensenada — Graph

°F

Ensenada Temperature Yesterday

Maximum temperature yesterday: 68 °F (at 11:48 am)
Minimum temperature yesterday: 50 °F (at 3:43 am)
Average temperature yesterday: 58 °F

High & Low Weather Summary for the Past Weeks

 TemperatureHumidityPressure
High75 °F (Mar 16, 1:45 pm)100% (Mar 6, 9:40 pm)30.22 "Hg (Mar 6, 9:40 pm)
Low43 °F (Mar 5, 5:45 am)14% (Mar 14, 2:45 pm)29.77 "Hg (Mar 12, 3:42 am)
Average56 °F70%30.02 "Hg
* Reported Mar 5 1:47 am — Mar 20 2:42 am, Ensenada. Weather by CustomWeather, © 2019

Note: Actual official high and low records may vary slightly from our data, if they occured in-between our weather recording intervals... More about our weather records

Advertising

Ensenada Weather History for the Previous 24 Hours

Scroll right to see more
 ConditionsComfort  
Time TempWeatherWind HumidityBarometerVisibility
2:42 am
Wed, Mar 20
52 °FPassing clouds.3 mph88%30.04 "Hg6 mi
1:41 am54 °FPassing clouds.No wind82%30.06 "Hg6 mi
12:41 am54 °FPassing clouds.5 mph88%30.05 "Hg6 mi
11:42 pm
Tue, Mar 19
54 °FPassing clouds.5 mph88%30.05 "Hg6 mi
10:44 pm55 °FPassing clouds.3 mph82%30.05 "Hg6 mi
9:40 pm55 °FPassing clouds.6 mph88%30.04 "Hg6 mi
8:44 pm57 °FPassing clouds.7 mph82%30.03 "Hg6 mi
6:47 pm59 °FScattered clouds.6 mph77%30.00 "Hg7 mi
5:44 pm61 °FSunny.17 mph77%29.98 "Hg8 mi
4:48 pm66 °FPassing clouds.5 mph49%29.99 "Hg8 mi
3:45 pm66 °FSunny.8 mph56%29.98 "Hg8 mi
2:47 pm68 °FSunny.10 mph53%29.98 "Hg8 mi
1:54 pm66 °FPassing clouds.13 mph56%29.98 "Hg10 mi
12:46 pm68 °FSunny.6 mph49%30.00 "Hg8 mi
11:48 am68 °FPassing clouds.6 mph56%30.02 "Hg7 mi
10:41 am63 °FSunny.No wind56%30.01 "Hg6 mi
9:54 am61 °FSunny.5 mph63%30.03 "Hg5 mi
8:42 am54 °FFog.6 mph82%30.03 "Hg3 mi
7:46 am52 °FFog.No wind88%30.00 "Hg3 mi
6:46 am50 °FPassing clouds.3 mph88%29.98 "Hg10 mi
5:42 am50 °FClear.No wind94%29.97 "Hg7 mi
4:47 am50 °FClear.No wind88%29.99 "Hg8 mi
Weather by CustomWeather, © 2019

See weather overview